Regional Weather Roundup
Issued by NWS

Home | Current Version | Previous Version | Text Only | Print | Product List | Glossary Off
Versions: 1 2 3 4 5 6 7 8 9 10 11 12 13 14 15 16 17 18 19 20 21 22 23 24 25 26 27 28 29 30 31 32 33 34 35 36 37 38 39 40 41 42 43 44 45 46 47 48 49 50

000
ASUS43 KDTX 101701
RWRMI
MICHIGAN HOURLY REGIONAL WEATHER ROUNDUP
NATIONAL WEATHER SERVICE DETROIT/PONTIAC MI
100 PM EDT THU JUL 10 2014

NOTE: "FAIR" INDICATES FEW OR NO CLOUDS BELOW 12,000 FEET WITH NO
SIGNIFICANT WEATHER AND/OR OBSTRUCTION TO VISIBILITY.

MIZ047>049-052>055-059>063-066>070-074>076-081>083-101800-
SOUTHEAST LOWER MICHIGAN

CITY           SKY/WX    TMP DP  RH WIND       PRES   REMARKS
ADRIAN         PTSUNNY   73  51  46 VRB3      30.17S
ALMA           SUNNY     69  43  39 N3        30.20F
ANN ARBOR      SUNNY     73  54  51 SW5       30.17R
BAD AXE        SUNNY     66  52  60 CALM      30.21R
CARO           MOSUNNY   72  57  59 NW5       30.19S
DETROIT CITY   MOSUNNY   75  55  49 N5        30.16R
DETROIT        CLOUDY    74  54  49 VRB6      30.16R
FLINT          PTSUNNY   70  54  56 NW9       30.18R
GROSSE ILE     SUNNY     75  61  60 S7        30.15R
HILLSDALE      SUNNY     71  50  48 CALM      30.19S
HOWELL         PTSUNNY   70  54  57 NW8       30.19R

CITY           SKY/WX    TMP DP  RH WIND       PRES   REMARKS
JACKSON        PTSUNNY   70  56  61 VRB5      30.19R
LAMBERTVILLE   PTSUNNY   73  55  53 E3        30.17R
LANSING        MOSUNNY   69  53  56 VRB7      30.20R
LAPEER         CLOUDY    70  55  58 N6        30.18S
MASON          CLOUDY    68  55  64 N6        30.19S
MONROE         CLOUDY    72  57  60 S5        30.15R
MT. CLEMENS    MOSUNNY   74  56  54 E6        30.15S
PONTIAC        PTSUNNY   72  52  49 VRB6      30.16S
PORT HOPE        N/A     61  50  67 NE7       30.21R
PORT HURON     PTSUNNY   72  57  60 CALM      30.17S
TRI CITIES     MOSUNNY   71  52  50 VRB3      30.21R
TROY           PTSUNNY   74  53  48 CALM      30.17S
SAGINAW HB     SUNNY     70  52  52 NE5       30.19S
$$
MIZ043>046-050>051-056>058-064>065-071>073-077>080-101800-
SOUTHWEST LOWER MICHIGAN

CITY           SKY/WX    TMP DP  RH WIND       PRES   REMARKS
BATTLE CREEK   MOSUNNY   71  54  54 NE8       30.20S
BENTON HARBOR  SUNNY     69  51  52 NW7       30.21R
BIG RAPIDS     SUNNY     69  45  42 CALM      30.20S
COLDWATER      PTSUNNY   72  55  55 NE6       30.19S
FREMONT        FAIR      70  48  44 S3        30.20S
HOLLAND        MOSUNNY   74  53  48 W3        30.21R
GRAND RAPIDS   MOSUNNY   72  54  53 VRB3      30.20S
IONIA          FAIR      68  51  54 SE5       30.20S
KALAMAZOO      MOSUNNY   72  52  49 NE6       30.20S
LUDINGTON      MOSUNNY   69  54  57 W6        30.20S
MARSHALL       PTSUNNY   67  54  61 N3        30.20R
MOUNT PLEASANT SUNNY     69  47  44 SW3       30.20S
MUSKEGON       MOSUNNY   73  48  41 VRB5      30.20S
SOUTH HAVEN    SUNNY     71  57  60 W8        30.20S
$$
MIZ016>042-101800-
NORTHERN LOWER MICHIGAN

CITY           SKY/WX    TMP DP  RH WIND       PRES   REMARKS
ALPENA         SUNNY     70  45  40 VRB7      30.20R
BEAVER ISLAND  SUNNY     68  51  54 W8        30.20S
BELLAIRE       SUNNY     70  46  41 CALM      30.20S
CADILLAC       SUNNY     67  47  48 NE7       30.20S
CHARLEVOIX     SUNNY     66  48  52 N7        30.24R
FRANKFORT      SUNNY     71  51  49 W7        30.20S
GAYLORD        SUNNY     66  44  45 MISG      30.21R
GRAYLING       SUNNY     68  42  38 NE3       30.21S
HARBOR SPRINGS SUNNY     66  53  63 SW6       30.19S
HOUGHTON LAKE  SUNNY     67  43  41 VRB5      30.21S
MANISTEE       PTSUNNY   70  48  46 W6        30.21S
OSCODA         SUNNY     66  47  50 E9G17     30.21R
PELLSTON       SUNNY     69  45  41 VRB5      30.20S
ROGERS CITY    SUNNY     64  51  63 N7        30.22S
TRAVERSE CITY  MOSUNNY   69  42  37 NE5       30.20R
$$
MIZ007>008-015-101800-
EASTERN UPPER MICHIGAN

CITY           SKY/WX    TMP DP  RH WIND       PRES   REMARKS
KINROSS        MOSUNNY   66  45  45 N3        30.18S
MACKINAC ISLAN SUNNY     63  51  65 SW6       30.20S
NEWBERRY       PTSUNNY   68  51  53 S3        30.18S
S. S. MARIE    SUNNY     70  48  45 W5        30.17F
$$
MIZ004>006-011>014-085-101800-
CENTRAL UPPER MICHIGAN

CITY           SKY/WX    TMP DP  RH WIND       PRES   REMARKS
MANISTIQUE     SUNNY     63  54  73 S9        30.20R
ESCANABA       SUNNY     66  54  63 S12       30.17S
MENOMINEE      SUNNY     70  54  56 S10       30.16S
SAWYER-GWINN   MOSUNNY   70  45  40 SW7       30.15S
$$
MIZ001>003-009>011-084-101800-
WESTERN UPPER MICHIGAN

CITY           SKY/WX    TMP DP  RH WIND       PRES   REMARKS
IRON MOUNTAIN  SUNNY     72  46  39 CALM      30.14F
HOUGHTON       SUNNY     71  49  45 SE5       30.11F
COPPER HARBOR    N/A     63  48  58 E3        30.11S
$$

ABBREVIATIONS USED IN REMARKS
   TC - TEMPERATURE IN CELSIUS
  WCI - WIND CHILL INDEX
   HX - HEAT INDEX
  VSB - VISIBILITY



USA.gov is the U.S. government's official web portal to all federal, state and local government web resources and services.